This is the latest recevied weather packets stored in our database for station/object KF0TNT. If no packets are shown the sender has not sent any weather packets the latest 10 day(s).
| Time | Temp. | Humidity | Pressure | Rain* | Wind** | Luminosity | Snow |
|---|---|---|---|---|---|---|---|
| 1777908842 | 15° C | 31% | 1014 hPa | 0 mm | - | 473 W/m² | - |
| 1777908538 | 15° C | 31% | 1014 hPa | 0 mm | - | 473 W/m² | - |
| 1777908235 | 15° C | 31% | 1014.1 hPa | 0 mm | - | 436 W/m² | - |
| 1777907932 | 14.44° C | 32% | 1014 hPa | 0 mm | - | 474 W/m² | - |
| 1777907627 | 14.44° C | 32% | 1014.1 hPa | 0 mm | - | 302 W/m² | - |
| 1777907323 | 13.89° C | 33% | 1014.3 hPa | 0 mm | - | 486 W/m² | - |
| 1777907019 | 13.89° C | 33% | 1014.4 hPa | 0 mm | - | 412 W/m² | - |
| 1777906717 | 13.89° C | 33% | 1014.6 hPa | 0 mm | - | 282 W/m² | - |
| 1777906413 | 13.33° C | 32% | 1014.4 hPa | 0 mm | - | 320 W/m² | - |
| 1777906110 | 13.89° C | 32% | 1014.4 hPa | 0 mm | - | 375 W/m² | - |
| 1777905806 | 13.33° C | 33% | 1014.4 hPa | 0 mm | - | 375 W/m² | - |
| 1777905504 | 13.33° C | 33% | 1014.3 hPa | 0 mm | - | 153 W/m² | - |
| 1777905201 | 12.78° C | 34% | 1014 hPa | 0 mm | - | 120 W/m² | - |
| 1777904898 | 12.78° C | 34% | 1014.3 hPa | 0 mm | - | 91 W/m² | - |
| 1777904595 | 12.22° C | 35% | 1014.3 hPa | 0 mm | - | 91 W/m² | - |
| 1777904292 | 12.22° C | 34% | 1014.3 hPa | 0 mm | - | 107 W/m² | - |
| 1777903989 | 12.22° C | 35% | 1014.4 hPa | 0 mm | - | 130 W/m² | - |
| 1777903686 | 12.22° C | 35% | 1014.4 hPa | 0 mm | - | 140 W/m² | - |
| 1777903382 | 12.22° C | 35% | 1014.3 hPa | 0 mm | - | 141 W/m² | - |
| 1777903078 | 12.22° C | 35% | 1014.3 hPa | 0 mm | - | 136 W/m² | - |
| 1777902775 | 12.22° C | 34% | 1014.3 hPa | 0 mm | - | 130 W/m² | - |
| 1777902473 | 12.22° C | 34% | 1014.1 hPa | 0 mm | - | 127 W/m² | - |
| 1777902169 | 12.22° C | 33% | 1014.3 hPa | 0 mm | - | 119 W/m² | - |
| 1777901868 | 12.22° C | 33% | 1014.1 hPa | 0 mm | - | 110 W/m² | - |
| 1777901564 | 11.67° C | 33% | 1014.6 hPa | 0 mm | - | 94 W/m² | - |
* Rain latest hour (hover to see other rain measurements)
** Current wind speed in m/s (hover to see current wind gust speed)